Terminal Aerodrome Forecast
Issued by NWS Binghamton, NY

Home | Current Version | Previous Version | Text Only | Print | Product List | Glossary On
Versions: 1 2 3 4 5 6 7 8 9 10 11 12 13 14 15 16 17 18 19 20
000
FTUS41 KBGM 310800 AAA
TAFAVP
TAF AMD
KAVP 310839Z 3109/0106 22004KT P6SM SCT009 OVC025
     FM311600 23007KT P6SM SCT025 BKN040
      TEMPO 3116/3120 -TSRA OVC025CB=

USA.gov is the U.S. government's official web portal to all federal, state and local government web resources and services.